Weather in Nebel

Russia / Irkutsk Oblast     56°21′08″N   107°06′19″E
temp.,
°C
wind,
m/s
gust,
m/s
humid.,
%
clouds,
%
prec.,
mm/h
press.,
hPa
HPBL,
m
17 may, mon
mon1723:00+1w1150100 0.0 100911
02:000nw115690 0.0 100912
05:00−2wnw226071 0.0 101016
08:00+3nw38325 0.0 10091869
11:00+5nw4727100 0.0 10092446
14:00+7nw5823100 0.0 10072893
17:00+6nw6923100 0.0 10072933
20:00+4nw483286 0.0 10081345
18 may, tue
tue1823:000nnw2247100 0.0 101055
02:00−3w21595 0.0 101113
05:00−4wsw226093 0.0 101138
08:00+2wnw493397 0.0 10102172
11:00+4wnw5933100 0.1 10082845
14:00+5wnw5928100 0.1 10062934
17:00+6nw5924100 0.0 10042774
20:00+4nnw253376 0.0 1004136
19 may, wed
wed1923:00−2wnw114767 0.0 100610
02:00−3w114685 0.0 100510
05:00−3nnw1144100 0.0 100410
08:00+3n2331100 0.0 1004630
11:00+6nnw342442 0.0 10041999
14:00+8nnw34215 0.0 10032400
17:00+9nnw2322100 0.0 10032521
20:00+5ene2437100 0.0 100388
20 may, thu
thu2023:00+1ene2648100 0.0 1003120
02:00+1ne1150100 0.1 100217
05:00+1nw0053100 0.4 100210
08:00+4nnw1247100 0.6 1002410
11:00+8n223498 0.0 10021804
14:00+9nnw2232100 0.0 10012179
17:00+10nne2231100 0.0 10012134
20:00+7ne2641100 0.0 1002242
21 may, fri
fri2123:00+4n2845100 0.0 1004234
02:00+3n2851100 0.0 1002224
05:00+2nnw31155100 0.0 1000496
08:00+3nnw51254100 0.1 1000813
11:00+4n61254100 0.1 9981023
14:00+5n71348100 0.2 9981638
17:00+5n51450100 0.4 9991790
20:00+4n51556100 0.7 9981770